Tracking 17996 objects as of 26-February-2017
HD Live streaming from Space Station
objects crossing your sky now

SAFIR 2

Track SAFIR 2 now!
10-day predictions
SAFIR 2 is classified as:


NORAD ID: 25399
Int'l Code: 1998-043F
Perigee: 816.5 km
Apogee: 817.7 km
Inclination: 98.6 °
Period: 101.1 minutes
Semi major axis: 7188 km
RCS: 0.3985 m2 (medium)
Launch date: July 10, 1998
Source: Germany (GER)
Launch site: TYURATAM MISSILE AND SPACE COMPLEX (TTMTR)
Uplink (MHz):
Downlink (MHz):
Beacon (MHz): 2401.900
Mode: 9600bps FSK
Call sign: DP1AIS
Status: Inactive

Your satellite tracking list
Your tracking list is empty





NASA's NSSDC Master Catalog

Two Line Element Set (TLE):
1 25399U 98043F   17056.91904500 +.00000005 +00000-0 +20782-4 0  9997
2 25399 098.5643 003.6875 0000849 210.4470 149.6660 14.24573801968193
Source of the keplerian elements: AFSPC